FW5313 Weather Reports


Display with metric or nautical units.
time (UTC)temp
F
wind
direction
speed
MPH
gust
MPH
rain 1hr
in
rain 24hr
in
rain mn
in
humidity
%
barometer
mb
20260510102042 44 0 0.0 1.0 0.00 0.09 0.02 98 1008.4
20260510101552 44 0 0.0 1.0 0.00 0.09 0.02 98 1008.3
20260510101044 44 0 0.0 1.0 0.00 0.09 0.02 98 1008.4
20260510100545 44 0 0.0 1.0 0.00 0.09 0.02 98 1008.5
20260510100057 44 0 0.0 1.0 0.00 0.09 0.02 98 1008.4
20260510095547 44 0 0.0 0.0 0.00 0.09 0.02 98 1008.3
20260510095044 44 0 0.0 1.0 0.00 0.09 0.02 98 1008.0
20260510094549 44 0 0.0 3.0 0.00 0.09 0.02 98 1007.9
20260510094047 45 0 0.0 3.0 0.00 0.09 0.02 98 1007.8
20260510093547 45 32 0.0 3.0 0.00 0.09 0.02 98 1007.8
20260510093051 45 0 0.0 1.0 0.00 0.09 0.02 98 1007.6
20260510092545 44 0 0.0 1.0 0.00 0.09 0.02 98 1007.5
20260510092045 44 0 0.0 1.0 0.00 0.09 0.02 98 1007.6
20260510091553 44 0 0.0 1.0 0.00 0.09 0.02 98 1007.6
20260510091045 44 0 0.0 0.0 0.00 0.09 0.02 98 1007.4
20260510090545 44 0 0.0 2.0 0.00 0.09 0.02 98 1007.5
20260510090056 44 15 0.0 2.0 0.01 0.09 0.02 98 1007.6
20260510085543 44 356 0.0 2.0 0.01 0.09 0.02 98 1007.6
20260510085046 44 327 0.0 2.0 0.01 0.09 0.02 98 1007.7
20260510084601 44 16 0.0 2.0 0.01 0.09 0.02 98 1007.4
20260510084045 44 330 0.0 1.0 0.02 0.09 0.02 98 1007.3
20260510083545 44 57 0.0 2.0 0.02 0.09 0.02 98 1007.2
20260510083054 44 43 0.0 2.0 0.02 0.09 0.02 98 1007.4
20260510082541 44 15 0.0 1.0 0.02 0.09 0.02 98 1007.4
20260510082041 44 124 0.0 1.0 0.02 0.09 0.02 98 1007.8
20260510081554 44 0 0.0 1.0 0.02 0.09 0.02 98 1007.9
20260510081044 44 163 0.0 0.0 0.02 0.09 0.02 98 1008.0
20260510080541 44 0 0.0 1.0 0.02 0.09 0.02 98 1008.0
20260510080048 44 178 0.0 1.0 0.01 0.08 0.01 98 1008.0
20260510075541 44 0 0.0 1.0 0.01 0.08 0.01 98 1008.0
20260510075041 44 0 0.0 1.0 0.01 0.08 0.01 98 1008.1
20260510074616 44 0 0.0 1.0 0.01 0.08 0.01 98 1008.1
20260510074045 44 0 0.0 1.0 0.00 0.07 0.00 98 1008.1
20260510073548 44 0 0.0 1.0 0.00 0.07 0.00 98 1008.0
20260510073051 44 81 0.0 1.0 0.00 0.07 0.00 98 1008.1
20260510072545 44 0 0.0 1.0 0.00 0.07 0.00 98 1008.0
20260510072041 44 80 0.0 1.0 0.00 0.07 0.00 98 1007.8
20260510071601 44 0 0.0 2.0 0.00 0.07 0.00 98 1007.9
20260510071047 44 8 0.0 3.0 0.00 0.07 0.00 98 1007.9
20260510070542 44 0 0.0 3.0 0.00 0.07 0.00 98 1007.8
20260510070051 44 0 0.0 2.0 0.00 0.07 0.00 98 1008.1
20260510065542 44 24 0.0 2.0 0.00 0.07 0.00 98 1008.1
20260510065045 44 0 0.0 2.0 0.00 0.07 0.00 98 1008.2
20260510064606 44 0 0.0 1.0 0.00 0.07 0.00 98 1008.1
20260510064042 44 0 0.0 2.0 0.00 0.07 0.00 98 1008.1
20260510063544 44 0 0.0 2.0 0.00 0.07 0.00 98 1008.0
20260510063100 44 323 0.0 1.0 0.00 0.07 0.00 98 1008.1
20260510062542 44 0 0.0 1.0 0.00 0.07 0.00 98 1007.9
20260510062045 44 328 0.0 2.0 0.00 0.07 0.00 98 1008.1
20260510061547 44 193 0.0 2.0 0.00 0.07 0.00 98 1008.1
20260510061044 44 0 0.0 2.0 0.00 0.07 0.00 98 1008.2
20260510060544 44 1 0.0 2.0 0.00 0.07 0.00 98 1008.1
20260510060056 44 0 0.0 2.0 0.00 0.07 0.00 98 1008.1
20260510055545 44 0 0.0 3.0 0.00 0.07 0.00 98 1008.0
20260510055045 44 32 0.0 3.0 0.00 0.07 0.00 98 1008.2
20260510054547 44 0 0.0 3.0 0.00 0.07 0.00 98 1008.3
20260510054045 44 315 0.0 2.0 0.00 0.07 0.00 98 1008.3
20260510053544 44 0 0.0 3.0 0.00 0.07 0.00 98 1008.3
20260510053047 44 0 0.0 3.0 0.00 0.07 0.00 98 1008.3
20260510052544 44 342 0.0 3.0 0.00 0.07 0.00 98 1008.3
20260510052045 44 0 0.0 2.0 0.00 0.07 0.00 98 1008.5
20260510051555 44 20 0.0 2.0 0.00 0.07 0.00 98 1008.4
20260510051042 44 44 0.0 3.0 0.00 0.07 0.00 98 1008.2
20260510050545 44 0 1.0 3.0 0.00 0.07 0.00 98 1008.3
20260510050052 44 354 1.0 3.0 0.00 0.07 0.00 98 1008.2
20260510045544 44 32 0.0 4.0 0.00 0.07 0.00 98 1008.2
20260510045044 43 329 1.0 4.0 0.00 0.07 0.00 98 1008.3
20260510044550 43 193 0.0 3.0 0.00 0.07 0.00 98 1008.4
20260510044044 43 0 0.0 3.0 0.00 0.07 0.00 98 1008.5
20260510043544 43 0 0.0 2.0 0.00 0.07 0.00 98 1008.6
20260510043101 43 0 0.0 3.0 0.00 0.07 0.00 98 1008.4
20260510042543 43 307 0.0 4.0 0.00 0.07 0.00 98 1008.3
20260510042041 43 295 1.0 5.0 0.00 0.07 0.00 98 1008.2
20260510041608 43 17 1.0 7.0 0.00 0.07 0.00 98 1008.0
20260510041041 43 193 1.0 7.0 0.00 0.07 0.00 98 1008.1
20260510040545 43 0 0.0 2.0 0.00 0.07 0.00 98 1008.1
20260510040055 43 329 0.0 2.0 0.00 0.07 0.00 98 1008.2
20260510035544 43 313 0.0 2.0 0.00 0.07 0.07 98 1008.3
20260510035044 43 27 0.0 2.0 0.00 0.07 0.07 98 1008.4
20260510034555 43 27 0.0 1.0 0.00 0.07 0.07 98 1008.4
20260510034049 43 323 0.0 1.0 0.00 0.07 0.07 98 1008.6
20260510033548 43 0 0.0 2.0 0.00 0.07 0.07 98 1008.5
20260510033055 43 16 0.0 2.0 0.00 0.07 0.07 98 1008.5
20260510032550 43 56 0.0 3.0 0.00 0.07 0.07 98 1008.3
20260510032051 43 326 1.0 4.0 0.00 0.07 0.07 98 1008.4
20260510031556 43 40 1.0 4.0 0.00 0.07 0.07 98 1008.4
20260510031046 43 0 0.0 4.0 0.00 0.07 0.07 98 1008.5
20260510030550 43 321 1.0 4.0 0.00 0.07 0.07 98 1008.5
20260510030052 43 15 0.0 3.0 0.00 0.07 0.07 98 1008.5
20260510025546 43 0 1.0 3.0 0.00 0.07 0.07 98 1008.6
20260510025045 43 0 1.0 4.0 0.00 0.07 0.07 98 1008.7
20260510024556 43 27 0.0 4.0 0.00 0.07 0.07 98 1008.6
20260510024045 43 350 1.0 5.0 0.00 0.07 0.07 98 1008.7
20260510023545 43 18 1.0 5.0 0.00 0.07 0.07 98 1008.7
20260510023049 43 193 0.0 8.0 0.00 0.07 0.07 98 1008.7
20260510022546 43 335 0.0 8.0 0.00 0.07 0.07 97 1008.5
20260510022047 43 193 0.0 4.0 0.00 0.07 0.07 97 1008.6
20260510021548 43 342 1.0 4.0 0.00 0.07 0.07 97 1008.6
20260510021049 43 292 0.0 4.0 0.00 0.07 0.07 97 1008.7
20260510020549 42 0 0.0 4.0 0.00 0.07 0.07 97 1008.7
20260510020056 42 0 1.0 4.0 0.00 0.07 0.07 97 1008.5
20260510015546 42 297 1.0 3.0 0.00 0.07 0.07 97 1008.4
20260510015046 42 344 0.0 2.0 0.00 0.07 0.07 97 1008.6
20260510014557 42 8 0.0 3.0 0.00 0.07 0.07 97 1008.8
20260510014045 42 307 0.0 3.0 0.00 0.07 0.07 97 1009.0
20260510013545 42 0 0.0 3.0 0.00 0.07 0.07 97 1008.9
20260510013106 42 356 0.0 3.0 0.00 0.07 0.07 97 1008.9
20260510012548 42 270 0.0 4.0 0.00 0.07 0.07 97 1009.1
20260510012045 42 301 0.0 4.0 0.00 0.07 0.07 97 1008.9
20260510011552 42 41 1.0 3.0 0.00 0.07 0.07 97 1008.9
20260510011049 43 0 0.0 4.0 0.00 0.07 0.07 97 1009.2
20260510010545 42 0 0.0 4.0 0.00 0.07 0.07 97 1009.2
20260510010101 43 68 1.0 3.0 0.00 0.07 0.07 97 1009.0
20260510005546 42 307 0.0 3.0 0.00 0.07 0.07 97 1009.1
20260510005046 43 4 1.0 3.0 0.00 0.07 0.07 97 1008.9
20260510004559 43 30 0.0 2.0 0.00 0.07 0.07 97 1008.9
20260510004045 43 15 0.0 5.0 0.00 0.07 0.07 97 1008.9
20260510003545 43 25 0.0 5.0 0.00 0.07 0.07 97 1009.0
20260510003057 43 0 1.0 3.0 0.00 0.07 0.07 97 1008.8
20260510002550 43 349 0.0 4.0 0.00 0.07 0.07 97 1008.7
20260510002045 43 357 1.0 4.0 0.00 0.07 0.07 97 1008.6
20260510001554 43 290 1.0 4.0 0.00 0.07 0.07 97 1008.6
20260510001045 43 308 0.0 2.0 0.00 0.07 0.07 97 1008.7
20260510000545 43 193 0.0 3.0 0.00 0.07 0.07 97 1008.7
20260510000104 43 0 0.0 3.0 0.00 0.07 0.07 97 1008.8
20260509235548 43 17 1.0 3.0 0.00 0.07 0.07 97 1008.5
20260509235045 43 334 0.0 3.0 0.00 0.07 0.07 97 1008.3
20260509234603 43 331 1.0 3.0 0.00 0.07 0.07 97 1008.3
20260509234049 43 259 0.0 4.0 0.00 0.07 0.07 97 1008.3
20260509233546 43 37 1.0 4.0 0.00 0.07 0.07 97 1008.5
20260509233054 43 280 0.0 1.0 0.00 0.07 0.07 97 1008.5
20260509232545 43 20 0.0 1.0 0.00 0.07 0.07 97 1008.5
20260509232046 43 0 0.0 1.0 0.00 0.07 0.07 97 1008.5
20260509231555 43 0 0.0 4.0 0.00 0.07 0.07 97 1008.5
20260509231045 43 290 1.0 4.0 0.00 0.07 0.07 97 1008.5
20260509230545 43 50 1.0 4.0 0.00 0.07 0.07 97 1008.5
20260509225546 43 69 1.0 4.0 0.00 0.07 0.07 97 1008.5
20260509225045 43 333 1.0 4.0 0.00 0.07 0.07 97 1008.3
20260509224554 43 13 1.0 3.0 0.00 0.07 0.07 97 1008.3
20260509224047 43 30 0.0 4.0 0.00 0.07 0.07 97 1008.3
20260509223545 43 0 1.0 4.0 0.01 0.07 0.07 97 1008.3
20260509223053 43 310 0.0 7.0 0.01 0.07 0.07 96 1008.4
20260509222544 43 0 1.0 7.0 0.01 0.07 0.07 96 1008.4
20260509222045 43 16 1.0 4.0 0.01 0.07 0.07 96 1008.4
20260509221606 43 274 1.0 4.0 0.01 0.07 0.07 96 1008.4
20260509221044 43 68 0.0 4.0 0.01 0.07 0.07 96 1008.5
20260509220548 43 178 0.0 4.0 0.01 0.07 0.07 96 1008.6
20260509220103 43 344 0.0 4.0 0.01 0.07 0.07 96 1008.6
20260509215545 43 352 0.0 4.0 0.01 0.07 0.07 96 1008.6
20260509215046 43 346 0.0 4.0 0.01 0.07 0.07 96 1008.6
20260509214549 43 30 0.0 3.0 0.02 0.07 0.07 96 1008.8
20260509214045 43 331 1.0 3.0 0.02 0.07 0.07 96 1008.8
20260509213545 43 78 1.0 3.0 0.01 0.06 0.06 96 1008.7
20260509213052 43 300 0.0 4.0 0.01 0.06 0.06 96 1008.8
20260509212545 43 0 0.0 4.0 0.01 0.06 0.06 96 1008.8
20260509212048 43 226 0.0 4.0 0.02 0.06 0.06 96 1008.9
20260509211551 43 323 0.0 6.0 0.02 0.06 0.06 96 1008.8
20260509211048 43 300 1.0 6.0 0.02 0.06 0.06 95 1008.9
20260509210545 43 13 1.0 6.0 0.02 0.06 0.06 96 1008.9
20260509210059 43 127 0.0 3.0 0.02 0.06 0.06 96 1009.0
20260509205548 43 4 1.0 3.0 0.02 0.06 0.06 95 1008.8
20260509205044 43 344 0.0 3.0 0.02 0.06 0.06 95 1009.0
20260509204559 43 64 1.0 3.0 0.01 0.05 0.05 95 1009.0
20260509204045 43 0 0.0 3.0 0.01 0.05 0.05 95 1009.1
20260509203544 43 332 0.0 3.0 0.01 0.05 0.05 95 1009.1
20260509203053 43 290 0.0 1.0 0.01 0.05 0.05 95 1009.1
20260509202545 43 302 0.0 5.0 0.01 0.05 0.05 95 1009.2
20260509202048 43 321 0.0 5.0 0.00 0.04 0.04 95 1009.2
20260509201552 43 266 0.0 4.0 0.00 0.04 0.04 94 1009.2
20260509201045 43 25 0.0 2.0 0.00 0.04 0.04 94 1009.2
20260509200545 43 328 0.0 2.0 0.00 0.04 0.04 94 1009.4
20260509200059 43 0 0.0 3.0 0.00 0.04 0.04 94 1009.4
20260509195546 43 341 0.0 3.0 0.00 0.04 0.04 94 1009.4
20260509195045 43 265 1.0 4.0 0.00 0.04 0.04 94 1009.4
20260509194551 43 0 1.0 4.0 0.00 0.04 0.04 94 1009.4
20260509194045 43 18 1.0 4.0 0.00 0.04 0.04 94 1009.5
20260509193549 43 193 0.0 3.0 0.00 0.04 0.04 94 1009.5
20260509193101 43 256 1.0 3.0 0.00 0.04 0.04 94 1009.5
20260509192546 43 0 0.0 4.0 0.00 0.04 0.04 94 1009.6
20260509192050 43 352 0.0 4.0 0.00 0.04 0.04 94 1009.4
20260509191611 43 178 1.0 4.0 0.00 0.04 0.04 94 1009.6
20260509191046 43 317 1.0 3.0 0.00 0.04 0.04 94 1009.7
20260509190546 43 0 1.0 6.0 0.00 0.04 0.04 94 1009.5
20260509190111 43 0 1.0 6.0 0.00 0.04 0.04 94 1009.6
20260509185545 43 203 0.0 2.0 0.00 0.04 0.04 95 1009.6
20260509185045 43 203 1.0 2.0 0.00 0.04 0.04 94 1009.6
20260509184554 43 351 1.0 3.0 0.00 0.04 0.04 94 1009.6
20260509184045 43 339 0.0 3.0 0.00 0.04 0.04 94 1009.7
20260509183545 43 44 1.0 4.0 0.00 0.04 0.04 94 1009.7
20260509183102 43 239 0.0 4.0 0.00 0.04 0.04 94 1009.8
20260509182546 43 23 0.0 4.0 0.01 0.04 0.04 94 1009.9
20260509182045 43 22 0.0 4.0 0.01 0.04 0.04 94 1009.9
20260509181553 43 203 1.0 4.0 0.01 0.04 0.04 94 1009.9
20260509181044 43 40 0.0 4.0 0.01 0.04 0.04 94 1009.8
20260509180548 43 93 1.0 4.0 0.02 0.04 0.04 94 1010.0
20260509180054 43 349 0.0 4.0 0.02 0.04 0.04 93 1010.1
20260509175545 43 17 1.0 4.0 0.02 0.04 0.04 93 1010.1
20260509175045 43 193 0.0 3.0 0.03 0.04 0.04 93 1010.1
20260509174549 43 0 0.0 3.0 0.03 0.04 0.04 93 1010.2
20260509174045 43 62 1.0 6.0 0.03 0.04 0.04 92 1010.2
20260509173544 43 219 1.0 6.0 0.03 0.04 0.04 92 1010.2
20260509173058 43 354 1.0 6.0 0.03 0.04 0.04 93 1010.3
20260509172548 43 347 0.0 8.0 0.02 0.03 0.03 92 1010.2
20260509172046 43 321 1.0 8.0 0.02 0.03 0.03 92 1010.4
20260509171608 44 193 1.0 4.0 0.03 0.03 0.03 93 1010.4
20260509171045 43 0 0.0 3.0 0.03 0.03 0.03 92 1010.5
20260509170545 43 352 0.0 4.0 0.02 0.02 0.02 92 1010.5
20260509170051 43 15 0.0 5.0 0.02 0.02 0.02 92 1010.6
20260509165545 43 14 1.0 5.0 0.02 0.02 0.02 91 1010.4
20260509165045 43 73 1.0 5.0 0.01 0.01 0.01 90 1010.5
20260509164558 43 50 1.0 5.0 0.01 0.01 0.01 90 1010.4
20260509164047 43 37 1.0 4.0 0.01 0.01 0.01 89 1010.7
20260509163547 43 127 1.0 6.0 0.01 0.01 0.01 89 1010.6
20260509163059 44 23 1.0 6.0 0.01 0.01 0.01 88 1010.6
20260509162548 44 345 0.0 4.0 0.01 0.01 0.01 88 1010.7
20260509162045 44 305 1.0 2.0 0.01 0.01 0.01 86 1010.6
20260509161557 44 65 1.0 4.0 0.00 0.00 0.00 85 1010.7
20260509161044 44 277 0.0 4.0 0.00 0.00 0.00 83 1010.8
20260509160546 45 4 1.0 5.0 0.00 0.00 0.00 80 1010.7
20260509160058 46 193 2.0 6.0 0.00 0.00 0.00 76 1010.8
20260509155544 46 61 1.0 6.0 0.00 0.00 0.00 73 1010.7
20260509155045 47 0 1.0 5.0 0.00 0.00 0.00 71 1010.7
20260509154553 47 296 1.0 5.0 0.00 0.00 0.00 71 1010.7
20260509154046 48 30 1.0 4.0 0.00 0.00 0.00 68 1010.8
20260509153545 48 193 0.0 4.0 0.00 0.00 0.00 68 1010.9
20260509153058 48 178 1.0 4.0 0.00 0.00 0.00 68 1010.9
20260509152545 48 193 1.0 4.0 0.00 0.00 0.00 67 1010.9
20260509152045 48 0 1.0 4.0 0.00 0.00 0.00 64 1010.8
20260509151558 49 193 1.0 3.0 0.00 0.00 0.00 64 1010.9
20260509151046 49 325 0.0 2.0 0.00 0.00 0.00 62 1010.9
20260509150545 49 121 0.0 4.0 0.00 0.00 0.00 63 1011.0
20260509150054 49 263 0.0 4.0 0.00 0.00 0.00 62 1011.0
20260509145545 49 178 1.0 4.0 0.00 0.00 0.00 61 1011.0
20260509145044 49 76 0.0 2.0 0.00 0.00 0.00 59 1010.9
20260509144551 48 202 0.0 2.0 0.00 0.00 0.00 60 1011.0
20260509144046 48 66 0.0 7.0 0.00 0.00 0.00 60 1011.0
20260509143548 48 288 1.0 7.0 0.00 0.00 0.00 59 1010.8
20260509143050 48 0 0.0 3.0 0.00 0.00 0.00 58 1010.9
20260509142544 48 26 0.0 3.0 0.00 0.00 0.00 57 1010.8
20260509142045 48 233 0.0 3.0 0.00 0.00 0.00 56 1010.9
20260509141555 48 56 0.0 2.0 0.00 0.00 0.00 57 1010.8
20260509141046 48 276 0.0 2.0 0.00 0.00 0.00 60 1010.9
20260509140546 47 202 0.0 2.0 0.00 0.00 0.00 58 1010.9
20260509140053 47 193 0.0 2.0 0.00 0.00 0.00 59 1011.1
20260509135543 47 193 0.0 2.0 0.00 0.00 0.00 58 1010.9
20260509135046 47 0 1.0 2.0 0.00 0.00 0.00 58 1010.9
20260509134556 47 326 0.0 2.0 0.00 0.00 0.00 57 1010.8
20260509134046 47 224 0.0 2.0 0.00 0.00 0.00 57 1010.7
20260509133545 47 271 0.0 3.0 0.00 0.00 0.00 58 1010.9
20260509133052 47 101 0.0 3.0 0.00 0.00 0.00 59 1010.9
20260509132544 47 80 0.0 3.0 0.00 0.00 0.00 61 1010.9
20260509132047 46 0 0.0 2.0 0.00 0.00 0.00 59 1010.8
20260509131609 46 222 0.0 3.0 0.00 0.00 0.00 63 1010.9
20260509131046 45 232 0.0 3.0 0.00 0.00 0.00 62 1011.1
20260509130547 44 170 0.0 4.0 0.00 0.00 0.00 61 1011.1
20260509130104 44 0 0.0 4.0 0.00 0.00 0.00 63 1011.0
20260509125547 43 349 0.0 4.0 0.00 0.00 0.00 66 1011.2
20260509125048 42 323 0.0 2.0 0.00 0.00 0.00 69 1011.2
20260509124549 42 323 0.0 2.0 0.00 0.00 0.00 68 1011.2
20260509124046 41 0 0.0 2.0 0.00 0.00 0.00 72 1011.4
20260509123546 40 0 0.0 1.0 0.00 0.00 0.00 74 1011.4
20260509123055 40 0 0.0 1.0 0.00 0.00 0.00 76 1011.4
20260509122546 39 0 0.0 2.0 0.00 0.00 0.00 77 1011.4
20260509122045 39 193 0.0 2.0 0.00 0.00 0.00 76 1011.5
20260509121551 38 254 0.0 2.0 0.00 0.00 0.00 75 1011.6
20260509121049 37 233 0.0 1.0 0.00 0.00 0.00 78 1011.6
20260509120545 36 0 0.0 2.0 0.00 0.00 0.00 81 1011.7
20260509120051 36 0 0.0 2.0 0.00 0.00 0.00 81 1011.7
20260509115545 35 221 0.0 1.0 0.00 0.00 0.00 83 1011.7
20260509115045 35 0 0.0 1.0 0.00 0.00 0.00 82 1011.7
20260509114607 35 0 0.0 2.0 0.00 0.00 0.00 83 1011.7
20260509114045 35 0 0.0 2.0 0.00 0.00 0.00 82 1011.8
20260509113546 35 0 0.0 2.0 0.00 0.00 0.00 82 1011.6
20260509113055 34 56 0.0 2.0 0.00 0.00 0.00 83 1011.7
20260509112543 34 0 0.0 2.0 0.00 0.00 0.00 85 1011.5
20260509112045 34 80 0.0 1.0 0.00 0.00 0.00 85 1011.6
20260509111549 34 0 0.0 1.0 0.00 0.00 0.00 85 1011.6
20260509111047 34 0 0.0 1.0 0.00 0.00 0.00 84 1011.6
20260509110545 34 0 0.0 1.0 0.00 0.00 0.00 84 1011.6
20260509110103 34 0 0.0 0.0 0.00 0.00 0.00 84 1011.6
20260509105545 34 0 0.0 1.0 0.00 0.00 0.00 84 1011.6
20260509105045 34 0 0.0 1.0 0.00 0.00 0.00 84 1011.5
20260509104557 33 0 0.0 1.0 0.00 0.00 0.00 85 1011.4
20260509104044 33 0 0.0 1.0 0.00 0.00 0.00 84 1011.4
20260509103545 33 81 0.0 0.0 0.00 0.00 0.00 84 1011.5
20260509103051 33 0 0.0 0.0 0.00 0.00 0.00 83 1011.5
20260509102545 33 0 0.0 1.0 0.00 0.00 0.00 83 1011.4